カタログに戻る

NOAA 16 DEB

運用中SSO
NORAD 41228·DEBRIS·🇺🇸 United States

打ち上げ Sep 21, 2000 から Vandenberg Space Force Base

Loading…

次のパス (今後24時間)

TLE

最新Source: Space-Track

元期: Sep 14, 2026, 04:38 UTC

1 41228U 00055EH  26257.19346303  .00002876  00000-0  10853-2 0  9990
2 41228  98.7204 342.8188 0019513 126.3330 233.9658 14.32038186555704

AllMySatでNOAA 16 DEBをリアルタイム追跡

Download on the App Store